Regional Weather Roundup
Issued by NWS

Home | Current Version | Previous Version | Graphics & Text | Print | Product List | Glossary On
Versions: 1 2 3 4 5 6 7 8 9 10 11 12 13 14 15 16 17 18 19 20 21 22 23 24 25 26 27 28 29 30 31 32 33 34 35 36 37 38 39 40 41 42 43 44 45 46 47 48 49 50
766
ASUS45 KSLC 020510
RWRUT

UTAH REGIONAL WEATHER ROUNDUP
NATIONAL WEATHER SERVICE SALT LAKE CITY UT
1100 PM MDT SUN MAY 01 2016

UTZ001>011-023>025-020600-

NORTHERN UTAH

CITY           SKY/WX    TMP DP  RH WIND       PRES   REMARKS
BRIGHAM CITY   PTCLDY    52  23  32 E17G23    30.14R
HILL AFB       PTCLDY    50  24  37 E18G32    30.12R
LOGAN          CLEAR     52  25  35 E15G26    30.17R
OGDEN          PTCLDY    53  24  32 CALM      30.11R
PROVO AIRPORT  PTCLDY    54  27  35 CALM      30.10R
SALT LAKE CITY PTCLDY    52  29  41 W6        30.10R
VERNAL         CLEAR     45  25  45 N7        30.18R
WENDOVER       MOCLDY    48  34  57 CALM      30.13R
HEBER CITY     PTCLDY    39  30  70 N3        30.15R

$$

UTZ012>022-026-027-020600-

SOUTHERN/CENTRAL UTAH

CITY           SKY/WX    TMP DP  RH WIND       PRES   REMARKS
BLANDING       CLOUDY    42  39  88 CALM      30.26R
BRYCE CANYON   CLOUDY    39  34  82 CALM      30.19R
CEDAR CITY     CLOUDY    48  36  63 E14       30.10R
DELTA          CLOUDY    50  32  50 NW13      30.09R
HANKSVILLE     CLOUDY    55  36  47 S3        30.13R
MILFORD        CLOUDY    53  35  50 N5        30.09R
MOAB/CYNLANDS  MOCLDY    52  38  58 S13       30.11R
PRICE          PTCLDY    46  25  43 NE10      30.15R
ST GEORGE      PTCLDY    59  41  51 E7        30.06R

$$

REGIONAL REPORTS     COLORADO/ARIZONA

CITY           SKY/WX    TMP DP  RH WIND       PRES   REMARKS
CRAIG, CO      CLOUDY    43  27  53 NE6       30.14R
GRAND JUNCTION CLOUDY    49  38  65 E13       30.14R
RIFLE          CLOUDY    45  39  79 CALM      30.17R
MONTROSE       CLOUDY    44  33  65 SE9       30.20R
CORTEZ         CLOUDY    44  37  76 VRB5      30.20R
PAGE, AZ       CLOUDY    52  41  66 S3        30.12R
GRAND CANYON   CLEAR     40  33  76 NE3       30.15R
KINGMAN        CLEAR     54  32  43 S6        30.03R
FLAGSTAFF      CLEAR     33  32  96 CALM      30.16R

$$

REGIONAL REPORTS    NEVADA/IDAHO/WYOMING

CITY           SKY/WX    TMP DP  RH WIND       PRES   REMARKS
LAS VEGAS, NV  PTCLDY    67  43  41 W5        29.93R
ELY            CLEAR     36  31  82 SE3       30.15R
ELKO           PTCLDY    49  28  44 NE12      30.12R
POCATELLO, ID  CLEAR     46  26  45 S3        30.13R
BURLEY         CLEAR     45  33  63 SW5       30.10R
EVANSTON, WY   CLEAR     35  23  61 E18       30.22R WCI  24
ROCK SPRINGS   CLEAR     35  24  64 E10       30.26R WCI  27
KEMMERER         N/A     32  23  69 E12       30.26R WCI  23

$$




USA.gov is the U.S. government's official web portal to all federal, state and local government web resources and services.